Zanesville, OH

10:23 PM EDT on April 28, 2017 (GMT -0400)
Zanesville Municipal

Weather History for KZZV - October, 2012

Change the Weather History Date:

Sunday, October 21, 2012

  Actual Average Record
Temperature  
Mean Temperature 47 °F 51 °F  
Max Temperature 60 °F 63 °F 83 °F (1953)
Min Temperature 33 °F 40 °F 15 °F (1952)
Degree Days  
Heating Degree Days 18 14  
Month to date heating degree days 252 226  
Since 1 July heating degree days 390 335  
Cooling Degree Days 0 0  
Month to date cooling degree days 4 7  
Year to date cooling degree days 978 766  
Moisture  
Dew Point 36 °F    
Average Humidity 73    
Maximum Humidity 100    
Minimum Humidity 46    
Precipitation  
Precipitation 0.00 in 0.08 in 1.07 in (2016)
Month to date precipitation 1.09 1.79  
Year to date precipitation 28.26 31.32  
Sea Level Pressure  
Sea Level Pressure 30.11 in    
Wind  
Wind Speed 2 mph (WSW)    
Max Wind Speed 10 mph    
Max Gust Speed 15 mph    
Visibility 6 miles    
Events Fog    
T = Trace of Precipitation, MM = Missing Value Source: NWS Daily Summary

Daily Weather History Graph

Daily Weather History Graph

Search for Another Location

Airport or City:

Trip Planner

Search our weather history database for the weather conditions in past years. The results will help you decide how hot, cold, wet, or windy it might be!

Date:

Astronomy

Oct. 21, 2012 Rise Set
Actual Time 7:44 AM EDT 6:38 PM EDT
Civil Twilight 7:17 AM EDT 7:06 PM EDT
Nautical Twilight 6:45 AM EDT 7:37 PM EDT
Astronomical Twilight 6:14 AM EDT 8:09 PM EDT
Moon 2:04 PM EDT (10/21) No Moon Set
Length of Visible Light 11h 48m
Length of Day
10h 53m
Waxing Crescent, 45% of the Moon is Illuminated
Oct 21
Waxing Crescent
Oct 21
First Quarter
Oct 29
Full
Nov 6
Last Quarter
Nov 13
New

Hourly Weather History & Observations

Time (EDT) Temp. Windchill Dew Point Humidity Pressure Visibility Wind Dir Wind Speed Gust Speed Precip Events Conditions
12:53 AM 43.0 °F 41.3 °F 41.0 °F 93% 30.00 in 10.0 mi WSW 3.5 mph - N/A   Clear
1:53 AM 37.9 °F - 37.0 °F 97% 30.01 in 9.0 mi Calm Calm - N/A   Clear
2:53 AM 37.9 °F - 37.0 °F 97% 30.03 in 7.0 mi Calm Calm - N/A   Clear
3:53 AM 37.9 °F - 35.1 °F 89% 30.05 in 5.0 mi Calm Calm - N/A   Clear
3:58 AM 37.4 °F - 35.6 °F 93% 30.04 in 1.2 mi Calm Calm - N/A   Partly Cloudy
4:00 AM 35.6 °F - 35.6 °F 100% 30.04 in 0.8 mi Calm Calm - N/A   Mist
4:36 AM 35.6 °F - 35.6 °F 100% 30.05 in 1.2 mi Calm Calm - N/A   Partly Cloudy
4:38 AM 35.6 °F - 35.6 °F 100% 30.05 in 2.5 mi Calm Calm - N/A   Partly Cloudy
4:45 AM 35.6 °F - 33.8 °F 93% 30.06 in 9.0 mi Calm Calm - N/A   Clear
4:53 AM 34.0 °F - 33.1 °F 96% 30.07 in 10.0 mi Calm Calm - N/A   Clear
5:53 AM 35.1 °F - 33.1 °F 92% 30.10 in 9.0 mi Calm Calm - N/A   Clear
6:43 AM 35.6 °F - 33.8 °F 93% 30.10 in 9.0 mi Calm Calm - N/A   Mostly Cloudy
6:53 AM 35.1 °F - 33.1 °F 92% 30.11 in 4.0 mi Calm Calm - N/A   Overcast
7:02 AM 33.8 °F - 33.8 °F 100% 30.10 in 1.2 mi Calm Calm - N/A   Overcast
7:11 AM 33.8 °F - 33.8 °F 100% 30.10 in 0.8 mi Calm Calm - N/A   Mist
7:14 AM 33.8 °F - 32.0 °F 93% 30.10 in 1.5 mi Calm Calm - N/A   Overcast
7:26 AM 33.8 °F - 32.0 °F 93% 30.11 in 0.8 mi Calm Calm - N/A   Mist
7:42 AM 33.8 °F - 32.0 °F 93% 30.11 in 1.5 mi Calm Calm - N/A   Overcast
7:48 AM 33.8 °F - 32.0 °F 93% 30.11 in 0.8 mi Calm Calm - N/A   Mist
7:53 AM 33.1 °F - 32.0 °F 96% 30.12 in 0.2 mi Calm Calm - N/A Fog Fog
8:48 AM 33.8 °F - 33.8 °F 100% 30.13 in 1.5 mi Calm Calm - N/A   Overcast
8:50 AM 33.8 °F - 33.8 °F 100% 30.13 in 3.0 mi Calm Calm - N/A   Overcast
8:53 AM 35.1 °F - 34.0 °F 96% 30.15 in 6.0 mi Calm Calm - N/A   Mostly Cloudy
9:09 AM 37.4 °F - 37.4 °F 100% 30.14 in 6.0 mi Calm Calm - N/A   Scattered Clouds
9:53 AM 43.0 °F 40.3 °F 41.0 °F 93% 30.16 in 9.0 mi SW 4.6 mph - N/A   Clear
10:53 AM 51.1 °F - 43.0 °F 74% 30.16 in 10.0 mi West 4.6 mph - N/A   Clear
11:53 AM 54.0 °F - 41.0 °F 62% 30.16 in 10.0 mi Calm Calm - N/A   Clear
12:53 PM 57.0 °F - 41.0 °F 55% 30.16 in 10.0 mi West 5.8 mph - N/A   Mostly Cloudy
1:53 PM 57.9 °F - 39.9 °F 51% 30.14 in 10.0 mi West 6.9 mph - N/A   Scattered Clouds
2:53 PM 57.9 °F - 37.9 °F 47% 30.13 in 10.0 mi WSW 6.9 mph - N/A   Partly Cloudy
3:53 PM 60.1 °F - 41.0 °F 49% 30.12 in 10.0 mi SW 5.8 mph - N/A   Clear
4:53 PM 60.1 °F - 39.0 °F 46% 30.12 in 10.0 mi Variable 3.5 mph - N/A   Clear
5:53 PM 57.9 °F - 39.0 °F 49% 30.12 in 10.0 mi SSW 3.5 mph - N/A   Clear
6:53 PM 55.9 °F - 39.0 °F 53% 30.12 in 10.0 mi Calm Calm - N/A   Clear
7:53 PM 51.1 °F - 39.0 °F 63% 30.14 in 10.0 mi Calm Calm - N/A   Clear
8:53 PM 48.0 °F - 39.0 °F 71% 30.14 in 10.0 mi Calm Calm - N/A   Clear
9:53 PM 44.1 °F - 37.9 °F 79% 30.14 in 10.0 mi Calm Calm - N/A   Clear
10:53 PM 43.0 °F - 37.9 °F 82% 30.14 in 10.0 mi Calm Calm - N/A   Clear
11:53 PM 41.0 °F - 37.9 °F 89% 30.15 in 10.0 mi Calm Calm - N/A   Clear